[[{"header":{"parameterUnit":"m.s-1","parameterCategory":1,"la1":30.2991,"la2":30.254,"lo1":-89.0895,"lo2":-89.0444,"dy":0.0017,"dx":0.0017,"nx":28,"ny":28,"refTime":"2024-03-21T09:00:00:Z","depth":0,"parameterNumber":2,"parameterNumberName":"U-component_of_WINDS"},"data":[0,0,0,0,0,0,0,0,0,0,0,0,0,0,0,0,0,0,0,0,0,0,0,0,0,0,0,0,0,0,0,0,0,0,0,0,0,0,0,0,0,0,0,0,0,0,0,0,0,0,0,0,0,0,0,0,0,0,-3.1959,-3.196,0,-3.2032,-3.2033,-3.2034,-3.2,-3.1998,-3.1996,-3.1994,-3.2066,-3.207,-3.2073,0,0,0,0,0,0,0,0,0,0,0,0,0,-3.1788,-3.1792,-3.1959,-3.196,-3.1961,-3.2032,-3.2033,-3.2034,-3.2,-3.1998,-3.1995,-3.1993,-3.2065,-3.2069,-3.2073,0,0,0,0,0,0,0,0,0,0,0,0,0,-3.1862,-3.1793,-3.1959,-3.1952,-3.1953,-3.2032,-3.2033,-3.2034,-3.2,-3.1998,-3.1995,-3.1992,-3.2063,-3.2069,-3.2074,-3.2163,0,0,-3.2091,-3.2093,0,0,0,0,0,0,0,0,-3.1858,-3.1868,-3.1952,-3.1953,-3.1953,-3.2004,-3.1999,-3.2077,-3.2001,-3.1982,-3.1994,-3.1991,-3.2047,-3.2054,-3.2074,-3.2166,-3.2169,-3.2091,-3.2094,-3.2097,-3.2098,0,0,0,0,0,0,0,-3.1853,-3.1865,-3.1988,-3.1954,-3.1954,-3.1945,-3.1953,-3.2014,-3.2029,-3.1984,-3.1981,-3.1991,-3.2047,-3.2068,-3.2075,-3.217,-3.2091,-3.2096,-3.2099,-3.2101,-3.234,-3.2343,0,0,0,0,0,0,-3.1848,-3.1861,-3.1985,-3.199,-3.1898,-3.1951,-3.1959,-3.199,-3.2028,-3.2032,-3.1993,-3.1989,-3.206,-3.2069,-3.2077,-3.2183,-3.2097,-3.2102,-3.2105,-3.2337,-3.234,-3.2344,0,0,0,0,0,0,-3.1845,-3.1859,-3.1982,-3.1925,-3.194,-3.1957,-3.1992,-3.1993,-3.2015,-3.2036,-3.2038,-3.2012,-3.2059,-3.207,-3.2142,-3.2185,-3.2104,-3.2109,-3.2333,-3.2338,-3.2342,-3.2396,0,0,0,0,0,0,-3.184,-3.1858,-3.1892,-3.1926,-3.1943,-3.2046,-3.1995,-3.1997,-3.2024,-3.202,-3.2054,-3.2057,-3.2057,-3.2134,-3.2147,-3.2191,-3.2113,-3.2329,-3.2335,-3.2341,-3.2391,-3.2402,-3.2412,0,0,0,0,0,-3.1834,-3.1904,-3.1894,-3.1909,-3.1986,-3.2049,-3.2059,-3.2058,-3.2028,-3.2062,-3.2076,-3.2056,-3.2179,-3.2142,-3.2157,-3.2203,-3.2326,-3.2333,-3.234,-3.2386,-3.24,-3.2412,0,0,0,0,0,0,-3.1873,-3.1908,-3.1898,-3.1981,-3.2013,-3.2043,-3.2086,-3.2073,-3.2113,-3.2107,-3.2104,-3.2112,-3.2187,-3.2203,-3.216,-3.2291,-3.2248,-3.2258,-3.2278,-3.2291,-3.2302,-3.2296,-3.2118,0,0,0,0,0,-3.1892,-3.1941,-3.1969,-3.2039,-3.2056,-3.2069,-3.2096,-3.2093,-3.2125,-3.2138,-3.2157,-3.2188,-3.2234,-3.2264,-3.2307,-3.2394,-3.2401,-3.2433,-3.2444,-3.2453,-3.2461,-3.2508,-3.2523,-3.2366,-3.2366,-3.2366,0,0,-3.1931,-3.1956,-3.1986,-3.2048,-3.2072,-3.2122,-3.208,-3.2134,-3.2171,-3.2146,-3.2215,-3.2231,-3.2266,-3.2346,-3.2382,-3.2361,-3.2506,-3.2461,-3.2468,-3.2472,-3.2517,-3.2531,-3.2544,-3.2371,-3.237,-3.2369,0,0,-3.2026,-3.2051,-3.2112,-3.2138,-3.2176,-3.2184,-3.2199,-3.2232,-3.2242,-3.2312,-3.2295,-3.2339,-3.2418,-3.2443,-3.2466,-3.2575,-3.2558,-3.2589,-3.2644,-3.269,-3.2703,-3.2713,-3.2751,-3.2765,-3.2598,-3.2598,-3.2598,0,-3.2068,-3.2144,-3.2145,-3.2202,-3.2229,-3.2211,-3.2274,-3.2298,-3.2348,-3.2367,-3.2343,-3.2443,-3.2465,-3.2551,-3.2578,-3.2598,-3.2614,-3.2584,-3.2701,-3.2712,-3.2722,-3.2758,-3.2772,-3.2601,-3.2601,-3.2601,-3.26,0,-3.2194,-3.2247,-3.2293,-3.2342,-3.2375,-3.2435,-3.2444,-3.2478,-3.2474,-3.2484,-3.2556,-3.2583,-3.2631,-3.2652,-3.2648,-3.2738,-3.2724,-3.2701,-3.2657,-3.274,-3.2774,-3.2788,-3.2606,-3.2605,-3.2604,-3.2603,0,0,-3.2314,-3.2366,-3.2382,-3.2405,-3.2446,-3.2487,-3.2546,-3.2595,-3.2623,-3.2659,-3.2708,-3.2777,-3.2756,-3.2783,-3.2781,-3.2822,-3.2906,-3.2794,-3.2795,-3.2813,-3.3007,-3.3022,-3.3038,-3.2896,-3.2899,-3.2901,-3.3003,0,-3.2411,-3.2515,-3.2519,-3.2613,-3.2662,-3.2647,-3.2698,-3.2729,-3.2742,-3.2784,-3.2798,-3.2846,-3.2816,-3.2832,-3.2872,-3.2887,-3.2944,-3.288,-3.294,-3.2942,-3.293,-3.3056,-3.3073,-3.3168,-3.3017,-3.3019,-3.3021,0,-3.2538,-3.2579,-3.2679,-3.2715,-3.2735,-3.2781,-3.2827,-3.2869,-3.2904,-3.291,-3.2942,-3.2935,-3.2995,-3.2952,-3.3034,-3.299,-3.3016,-3.3027,-3.3031,-3.3034,-3.2985,-3.3062,-3.3198,-3.3212,-3.3042,-3.304,-3.3038,0,-3.2614,-3.2694,-3.2764,-3.2785,-3.2828,-3.2861,-3.2881,-3.2914,-3.2943,-3.2984,-3.3003,-3.3049,-3.3074,-3.311,-3.3116,-3.3084,-3.3199,-3.3156,-3.3205,-3.3205,-3.3228,-3.3226,-3.3368,-3.3247,-3.3247,-3.3247,-3.3247,0,-3.2721,-3.2782,-3.2799,-3.2842,-3.291,-3.2915,-3.2982,-3.3,-3.303,-3.3075,-3.3065,-3.3108,-3.3115,-3.316,-3.3165,-3.3232,-3.3244,-3.325,-3.325,-3.325,-3.3249,-3.3265,-3.3257,-3.3251,-3.325,-3.3249,-3.3248,0,-3.2816,-3.283,-3.2905,-3.2942,-3.2952,-3.3001,-3.3032,-3.3073,-3.3086,-3.3144,-3.3158,-3.3177,-3.323,-3.324,-3.3302,-3.3305,-3.3385,-3.338,-3.3373,-3.3372,-3.342,-3.3415,-3.3576,-3.3597,-3.3464,-3.3465,-3.3466,0,-3.2882,-3.2929,-3.2971,-3.3002,-3.3024,-3.3073,-3.3104,-3.3111,-3.3143,-3.3189,-3.3224,-3.3276,-3.3317,-3.3402,-3.3421,-3.3468,-3.3462,-3.3516,-3.3469,-3.3468,-3.3462,-3.3458,-3.3463,-3.3524,-3.3525,-3.3527,-3.3527,0,-3.2998,-3.3004,-3.3049,-3.3097,-3.3135,-3.3173,-3.3209,-3.3235,-3.3247,-3.3284,-3.3338,-3.3371,-3.3435,-3.3486,-3.3534,-3.3553,-3.3542,-3.3543,-3.3556,-3.3555,-3.3549,-3.3552,-3.3396,-3.3538,-3.3537,-3.3536,-3.3536,-3.3535,-3.308,-3.3121,-3.3158,-3.3209,-3.3238,-3.3273,-3.3313,-3.3332,-3.3378,-3.3431,-3.3433,-3.3492,-3.3527,-3.359,-3.3614,-3.3659,-3.3642,-3.3662,-3.3667,-3.3671,-3.3675,-3.3544,-3.3668,-3.3668,-3.3668,-3.3668,-3.3667,0,-3.3194,-3.3218,-3.3265,-3.3317,-3.3358,-3.3347,-3.3387,-3.3421,-3.3473,-3.3508,-3.355,-3.3612,-3.3663,-3.3687,-3.3737,-3.3769,-3.3765,-3.3782,-3.3778,-3.3783,-3.3688,-3.3671,-3.3784,-3.3784,-3.3784,-3.3784,-3.3784,-3.3784,-3.3259,-3.3328,-3.3338,-3.3422,-3.3445,-3.3504,-3.3527,-3.356,-3.3587,-3.3658,-3.37,-3.3717,-3.3747,-3.38,-3.3845,-3.3851,-3.3869,-3.3888,-3.3891,-3.3801,-3.379,-3.3778,-3.3762,-3.3892,-3.3892,-3.3982,-3.3982,-3.3983]},{"header":{"parameterUnit":"m.s-1","parameterCategory":1,"la1":30.2991,"la2":30.254,"lo1":-89.0895,"lo2":-89.0444,"dy":0.0017,"dx":0.0017,"nx":28,"ny":28,"refTime":"2024-03-21T09:00:00:Z","depth":0,"parameterNumber":3,"parameterNumberName":"V-component_of_WINDS"},"data":[0,0,0,0,0,0,0,0,0,0,0,0,0,0,0,0,0,0,0,0,0,0,0,0,0,0,0,0,0,0,0,0,0,0,0,0,0,0,0,0,0,0,0,0,0,0,0,0,0,0,0,0,0,0,0,0,0,0,0.0499,0.0499,0,0.0546,0.0547,0.0547,0.0576,0.0577,0.0577,0.0577,0.0626,0.0627,0.0628,0,0,0,0,0,0,0,0,0,0,0,0,0,0.0432,0.0433,0.0498,0.0499,0.05,0.0546,0.0547,0.0547,0.0576,0.0577,0.0577,0.0577,0.0626,0.0627,0.0629,0,0,0,0,0,0,0,0,0,0,0,0,0,0.0468,0.0433,0.0498,0.052,0.0522,0.0546,0.0547,0.0548,0.0576,0.0577,0.0577,0.0577,0.0625,0.0627,0.0629,0.0635,0,0,0.0634,0.0635,0,0,0,0,0,0,0,0,0.0466,0.0471,0.0516,0.0518,0.0521,0.0556,0.0541,0.0577,0.0576,0.0556,0.0577,0.0577,0.0602,0.0606,0.0615,0.0637,0.064,0.0634,0.0635,0.0636,0.0637,0,0,0,0,0,0,0,0.0464,0.0469,0.0517,0.0517,0.052,0.0527,0.0532,0.0548,0.0577,0.0558,0.056,0.0565,0.0604,0.0613,0.0616,0.064,0.0634,0.0636,0.0637,0.0638,0.067,0.067,0,0,0,0,0,0,0.0458,0.0467,0.0516,0.0519,0.0494,0.0528,0.0534,0.0544,0.0577,0.0582,0.0565,0.0566,0.061,0.0614,0.0618,0.0627,0.0636,0.0638,0.0639,0.067,0.067,0.067,0,0,0,0,0,0,0.0456,0.0462,0.0514,0.0493,0.05,0.0529,0.054,0.0545,0.0554,0.0583,0.0588,0.0569,0.061,0.0615,0.063,0.0629,0.0638,0.064,0.067,0.067,0.067,0.0646,0,0,0,0,0,0,0.0454,0.0461,0.0464,0.0493,0.0501,0.0526,0.054,0.0546,0.0557,0.0559,0.0588,0.0593,0.0611,0.0628,0.0632,0.0632,0.0641,0.067,0.067,0.067,0.0647,0.0645,0.0643,0,0,0,0,0,0.0452,0.0456,0.0464,0.047,0.0506,0.0526,0.0531,0.0551,0.0557,0.056,0.0578,0.0592,0.0628,0.0629,0.0634,0.0635,0.0671,0.067,0.067,0.0648,0.0646,0.0643,0,0,0,0,0,0,0.0427,0.046,0.047,0.0484,0.0501,0.0531,0.0535,0.0548,0.0565,0.0566,0.0591,0.0597,0.061,0.0624,0.0623,0.0642,0.0651,0.0652,0.0633,0.0631,0.0629,0.0625,0.0643,0,0,0,0,0,0.0423,0.0436,0.0465,0.0474,0.0483,0.0507,0.0517,0.0531,0.0551,0.0558,0.0578,0.0596,0.0612,0.0622,0.0638,0.0649,0.0655,0.0652,0.065,0.0648,0.0648,0.0655,0.0653,0.0668,0.0668,0.0668,0,0,0.0415,0.0435,0.0442,0.047,0.0485,0.0498,0.0514,0.0527,0.0537,0.0561,0.0576,0.059,0.0613,0.0626,0.0632,0.0638,0.0645,0.0647,0.0646,0.0647,0.0654,0.0653,0.0651,0.0668,0.0668,0.0668,0,0,0.0408,0.0424,0.0433,0.0448,0.0471,0.0488,0.049,0.0517,0.0527,0.0543,0.056,0.0572,0.0599,0.0614,0.0625,0.0621,0.0634,0.0625,0.0616,0.0621,0.062,0.0619,0.0618,0.0617,0.0626,0.0625,0.0625,0,0.0395,0.0416,0.0437,0.0449,0.046,0.0481,0.0491,0.0504,0.0531,0.0538,0.0544,0.0577,0.0593,0.061,0.0609,0.0617,0.062,0.0623,0.0619,0.0618,0.0617,0.0616,0.0616,0.0624,0.0624,0.0625,0.0625,0,0.0399,0.0413,0.0418,0.0443,0.0455,0.0465,0.0487,0.0497,0.0509,0.0524,0.0539,0.056,0.058,0.0585,0.0597,0.0602,0.0605,0.0614,0.0624,0.0614,0.0614,0.0614,0.0623,0.0623,0.0623,0.0624,0,0,0.0379,0.0414,0.0416,0.0427,0.0453,0.0464,0.0475,0.0495,0.0502,0.0519,0.0529,0.055,0.0559,0.0571,0.0585,0.059,0.0585,0.0599,0.06,0.0596,0.0592,0.0585,0.0584,0.0594,0.0594,0.0594,0.059,0,0.0376,0.0397,0.0415,0.043,0.0442,0.0461,0.0471,0.0488,0.0502,0.0515,0.053,0.0545,0.0555,0.0562,0.0568,0.0585,0.0585,0.0585,0.0603,0.0604,0.0598,0.0584,0.0577,0.0573,0.059,0.059,0.059,0,0.0376,0.0392,0.0407,0.0431,0.0437,0.0445,0.0463,0.0475,0.0494,0.0504,0.0517,0.0532,0.0544,0.0551,0.0568,0.0568,0.0576,0.0585,0.0585,0.0589,0.0597,0.0587,0.0572,0.0572,0.059,0.059,0.059,0,0.0359,0.0385,0.0397,0.0406,0.0434,0.0439,0.0451,0.047,0.048,0.0496,0.0503,0.052,0.053,0.0542,0.0561,0.0565,0.0576,0.0585,0.0584,0.0584,0.0587,0.0586,0.0573,0.0591,0.0591,0.0591,0.0591,0,0.0354,0.0363,0.039,0.0398,0.0408,0.0428,0.0437,0.0451,0.0467,0.0478,0.0495,0.0504,0.0528,0.054,0.0554,0.0566,0.057,0.0578,0.0582,0.0577,0.0576,0.0583,0.0584,0.0591,0.0591,0.0591,0.0591,0,0.0339,0.0357,0.0372,0.0396,0.0402,0.0409,0.043,0.0438,0.0452,0.0465,0.0469,0.0492,0.0507,0.0526,0.0547,0.0557,0.0567,0.0572,0.056,0.0563,0.0561,0.0561,0.0553,0.0552,0.0569,0.0569,0.0569,0,0.0334,0.0341,0.0366,0.0374,0.0385,0.0398,0.0408,0.0428,0.0437,0.0458,0.0464,0.048,0.0494,0.0516,0.0535,0.0551,0.0557,0.0553,0.056,0.0554,0.0557,0.0557,0.0558,0.0552,0.0551,0.0551,0.0551,0,0.0325,0.0333,0.0347,0.0363,0.0374,0.0388,0.0403,0.0408,0.0431,0.0441,0.0456,0.0467,0.0488,0.0503,0.0521,0.0533,0.0546,0.0548,0.0549,0.0545,0.0537,0.0541,0.0556,0.0549,0.0549,0.0549,0.0549,0.0549,0.0315,0.0322,0.034,0.0354,0.0367,0.038,0.0388,0.0403,0.0416,0.0434,0.0445,0.046,0.0477,0.0503,0.0514,0.0526,0.0531,0.0532,0.0532,0.0532,0.053,0.0535,0.0529,0.0529,0.0529,0.0529,0.0529,0,0.0307,0.0319,0.0332,0.0351,0.0362,0.0372,0.0388,0.0397,0.0409,0.0425,0.0438,0.0454,0.0469,0.0488,0.0504,0.051,0.0516,0.0513,0.0513,0.0516,0.0525,0.0523,0.0508,0.0508,0.0508,0.0508,0.0508,0.0508,0.0304,0.0316,0.0326,0.0344,0.0356,0.037,0.0378,0.039,0.0402,0.042,0.0432,0.0444,0.0461,0.0478,0.0492,0.0497,0.0502,0.0498,0.0505,0.0513,0.0515,0.0517,0.0515,0.0499,0.0499,0.0494,0.0494,0.0494]}]]